Location: Baili�vre
(50.0696°N, 4.2409°E)
Time: 23:30:49
(UTC+00:00)

Cosmos 1023 Rocket - Pass Details

Date: 08 August 2020
Orbit: 737 x 772 km, 74.1° (Epoch: 23 September)

Event Time Altitude Azimuth Distance (km) Brightness Sun altitude
Rises 20:48:01 0° 198° (SSW) 3,231 7.5 -13.1°
Reaches altitude 10° 20:50:23 10° 197° (SSW) 2,311 6.7 -13.4°
Maximum altitude 20:55:38 79° 112° (ESE) 791 4.4 -13.9°
Drops below altitude 10° 21:00:56 10° 26° (NNE) 2,325 7.3 -14.5°
Sets 21:03:19 0° 25° (NNE) 3,253 8.1 -14.8°
